Current Conditions for Foresthill, CA. Overcast, Dry   
Visibility: 5 miles
Cloud ht: 999 ft Foresthill Advisory text: No Warning

  Summary / Temperature 

Current Temperature
56.9°F
13.8°C
(24/hr Ago)
55.7°F
(Apparent temp)
55.4°F
Cool
Wind Chill Graphs
56.9°F 

59.4°F/ 15.2°C
 --- Virtual Temp: 59.6°F ---

 Temp Rate:

 24/hr Difference:

 Avg Running Temp:

 Todays High:

 Todays Low:

 Y-days High:

 Y-days Low:

 Todays WChill:

 Y-days WChill:

 Evapotranspiration:

-1.0°F/hr 

+1.2°F

58.2°F

60.1°F 4:41pm

49.0°F 6:30am

61.1°F 1:53pm

50.1°F 6:25am

46.3°F 5:56am

46.0°F 6:25am

0.076 in

115' Above Ground

 Temperature:

 6'AGL VRS 115'AGL:

 Avg Running Temp:

 Humidity:

 Todays High:

 Todays Low:

 Y-days High:

 Y-days Low:

56.0°F 

-0.9°F

57.7°F

77% 

62.0°F 4:30pm

48.0°F 4:42am

60.0°F 1:01pm

50.0°F 10:46pm

Temp & Humidity Graphs

  Wind 

Wind Speed

 Calm

Gusting to

 9.0 mph

Wind from S

191°  S

Calm

 Avg speed:

 Wind Run:

 Peak Gust:

  3.0 mph 

13.0 miles

  10.0 mph 1:45pm

  Almanac  

Moon age: 4 days,5 hours,8 minutes,19%

Waxing Crescent
26%
Illuminated
5 days in cycle

 Moonrise:

 Moonset:

 Sunrise:

 Sunset:

 Solar Noon:

10:05am

---

5:43am

8:14pm

1:00pm

1min 32s more daylight tomorrow 

  Solar Radiation 

(Current Solar)
  No Sun Light
(Todays High)
 1063 W/m2@10:37am

Rain

 Rain Today:

 Rain Rate (/hr):

 Rain last hour:

 Rain Yesterday:

 This Month:

 Season Total:

7 Days Since Last Rain Day

0.02 in

0.000 in

0.00 in

0.00 in

0.38 in

33.91 in

Updated Time

Updated: 5/22/15  9:11pm

(Updated  sec ago)

Humidity & Barometer

 Humidity:

 Wetbulb:

 Dew Point:

 Barometer:

79% 

53.4°F 

50.5°F 

30.027 inHg 

 Baro Trend:  Steady 

    UV Index  

(Current UV)
0.0  None
(Todays High) @ 12:53pm
7.9   High

Weather Underground 5 day Forecast

Sat Sun Mon Tue Wed
Chance Rain Mostly Cloudy Mostly Cloudy Mostly Cloudy Mostly Cloudy
Chance Rain Mostly Cloudy Mostly Cloudy Mostly Cloudy Mostly Cloudy
74 79 78 76 77
54 58 54 54 55

Foresthill Probe 2 Stats  
Foresthill Probe 2: is located on Thomas Street
at 3000 feet. The main Foresthill Weather site
is located on Melody ln at the 2860 foot elevation

Calm
54.8°F
12.7°C
Temp Rate:
-1.4°F
Calm
Gusting to
None
(Humidity)
85%
Calm
260°  
Updated: 22/05/15 - 21:11:59
 Todays High: 60.1°F 17:40
 Todays Low: 47.6°F 05:54
 Rain Today: 0.03 in
 Season Total: 31.79 in

Foresthill Wx: Monthly,Yearly, Highs and Lows 

Foresthill  
This Weather Data is coming from the main Foresthill
Weather site located on Melody ln at the 2860 foot
elevation
Not Foresthill Probe 2
Weather Data
Month
  High
Month
  Low
Year
High
Year
Low
Temp 80.0F
5/1/15
40.4F
5/7/15
80.0F
5/1/15
29.7F
1/1/15
Humidity 92%
5/7/15
18%
5/1/15
98%
4/25/15
18%
5/1/15
Heat Index 79.1F
5/1/15
45.9F
5/7/15
79.1F
5/1/15
32.1F
1/1/15
Wind Chill 80.0F
5/1/15
29.9F
5/7/15
80.0F
5/1/15
22.3F
4/7/15
Wind Gust 28 mph
5/7/15
0 mph
5/1/15
52 mph
2/6/15
0 mph
1/1/15
Barometer 30.11 in
5/9/15
29.68 in
5/7/15
30.51 in
1/4/15
29.68 in
5/7/15
ET 0.21 in
5/2/15
0.00 in
5/1/15
0.21 in
5/2/15
0.00 in
1/1/15
Dew Point 54.3F
5/10/15
31.6F
5/1/15
57.3F
4/28/15
10.0F
1/1/15
Infrared Satellite Regional Radar Satellite Imagery Sacramento,CA.  (click to enlarge)
NWS Weather Forecast - Outlook: Tonight and Saturday
Tonight

Chance Showers. Chance for Measurable Precipitation 30%
Chance
Showers
Lo 49 °F
NWS forecast: A 30 percent chance of showers, mainly before 11pm. Mostly cloudy, with a low around 49. South southwest wind around 6 mph becoming calm in the evening. New precipitation amounts of less than a tenth of an inch possible.
Saturday

Chance Showers. Chance for Measurable Precipitation 30%
Chance
Showers
Hi 67 °F
NWS forecast: A slight chance of showers, then a chance of showers and thunderstorms after 11am. Partly sunny, with a high near 67. Calm wind becoming west southwest around 6 mph in the afternoon. Chance of precipitation is 30%. New rainfall amounts of less than a tenth of an inch, except higher amounts possible in thunderstorms.
NWS Weather Forecast - Summary
Updated: Friday, May 22, 2015 - 3:24pm (PDT)
YR.NO 10 Day Weather forecast
Last update: 05/22/2015 @ 12:05
Next update: 05/23/2015 @ 01:00
Provided by: 22
      Temperature Precipitation Pressure Wind  
Today
05/22/2015
20:00 23:00 54°F   29.97 inHg Light air from east-southeast 3 mph
  23:00 05:00 50°F   30.01 inHg Light air from east-southeast 3 mph
    (Click to enlarge)
meteogram

    Forecast for next 9 days

      Temperature Precip Pressure Wind  
Saturday
05/23/2015
05:00 11:00 46°F   30.00 inHg Light breeze from east 4 mph
  11:00 17:00 59°F 0.10 in 30.03 inHg Light breeze from west-southwest 5 mph
  17:00 23:00 63°F < 0.01 in 29.96 inHg Light breeze from west-southwest 5 mph
  23:00 05:00 50°F   30.01 inHg Light air from east 3 mph
      Temperature Precip Pressure Wind  
Sunday
05/24/2015
05:00 11:00 45°F   29.95 inHg Light breeze from east-northeast 5 mph
  11:00 17:00 68°F   29.92 inHg Light breeze from west 5 mph
  17:00 23:00 72°F   29.88 inHg Light breeze from west-southwest 4 mph
  23:00 05:00 57°F   29.92 inHg Light air from east-southeast 2 mph
      Temperature Precip Pressure Wind  
Monday
05/25/2015
05:00 11:00 48°F   29.89 inHg Light air from east 3 mph
  11:00 17:00 70°F   29.91 inHg Light breeze from southwest 6 mph
  17:00 23:00 72°F   29.87 inHg Light breeze from southwest 6 mph
  23:00 05:00 55°F   29.93 inHg Light air from east-southeast 2 mph
      Temperature Precip Pressure Wind  
Tuesday
05/26/2015
05:00 11:00 48°F   29.90 inHg Light breeze from east-northeast 5 mph
  11:00 17:00 70°F   29.92 inHg Light breeze from southwest 6 mph
  17:00 23:00 70°F   29.91 inHg Light breeze from southwest 6 mph
  23:00 05:00 55°F   29.96 inHg Light air from east 2 mph
      Temperature Precip Pressure Wind  
Wednesday
05/27/2015
05:00 11:00 46°F   29.93 inHg Light air from east-northeast 3 mph
  11:00 17:00 72°F   29.93 inHg Light breeze from west 5 mph
  17:00 23:00 75°F   29.89 inHg Light breeze from west 6 mph
  23:00 05:00 61°F   29.94 inHg Light air from east-northeast 2 mph
      Temperature Precip Pressure Wind  
Thursday
05/28/2015
05:00 11:00 52°F   29.89 inHg Light breeze from east-northeast 5 mph
  11:00 17:00 77°F   29.90 inHg Light breeze from west-southwest 5 mph
  17:00 23:00 79°F   29.88 inHg Light breeze from west-southwest 5 mph
  23:00 05:00 63°F   29.92 inHg Light air from east 2 mph
      Temperature Precip Pressure Wind  
Friday
05/29/2015
05:00 11:00 52°F   29.90 inHg Light air from east-northeast 3 mph
  11:00 17:00 79°F   29.90 inHg Light breeze from southwest 6 mph
  17:00 23:00 81°F   29.89 inHg Light breeze from west-southwest 6 mph
  23:00 05:00 61°F   29.91 inHg Light air from east 2 mph
      Temperature Precip Pressure Wind  
Saturday
05/30/2015
05:00 11:00 55°F   29.88 inHg Light breeze from east 6 mph
  11:00 17:00 79°F   29.91 inHg Light breeze from southwest 6 mph
  17:00 23:00 81°F   29.88 inHg Light breeze from southwest 6 mph
  23:00 05:00 61°F   29.91 inHg Light air from east 3 mph
      Temperature Precip Pressure Wind  
Sunday
05/31/2015
05:00 11:00 54°F   29.87 inHg Light breeze from east-northeast 6 mph
  11:00 17:00 82°F   29.87 inHg Light breeze from south-southwest 5 mph
  17:00 23:00 82°F   29.85 inHg Light breeze from southwest 6 mph
  23:00 05:00 64°F   29.90 inHg Light air from east 2 mph

Weather History For Saturday, May 23, 2015


On this Day - In Weather History ...
Data courtesy of weatherforyou.com
powered by Cumulus v1.9.3 (1059)
Ambient Weather VWS v14.00
Top Contact Website Map Copyright © 2007 - 2015 Foresthillweather.com Never base important decisions on this or any weather information obtained from the Internet